Location: Bli��� Lhota
(48.7570°N, 14.0120°E)
Time: 23:24:22
(UTC+00:00)

SJ-6B - Pass Details

Date: 18 September 2020
Orbit: 511 x 580 km, 97.6° (Epoch: 31 October)

Event Time Altitude Azimuth Distance (km) Brightness Sun altitude
Exits shadow 19:22:23 18° 205° (SSW) 1,294 4.6 -21.7°
Maximum altitude 19:24:37 35° 263° (W) 839 4.1 -22.0°
Drops below altitude 10° 19:28:07 10° 330° (NNW) 1,753 6.2 -22.5°
Sets 19:30:22 0° 340° (NNW) 2,653 7.1 -22.8°
